Home   Weather   Saint John   Past weeks

Flag for Canada Past Weather in Saint John, New Brunswick, Canada — Yesterday and Last 2 Weeks

Now
43 °F

Passing clouds.


Feels Like: 39 °F
Forecast: 38 / 55 °F
Wind: 6 mph from Northeast

Location: Saint John

Current Time: Apr 29, 2017 at 10:08:46 pm

Latest Report: Apr 29, 2017 at 9:00 pm


Visibility: 15 mi

Pressure: 29.72 "Hg

Humidity: 100%

Dew Point: 43 °F

Location of Saint JohnLocation

Past Weather in Saint John — Graph

°F

Saint John Temperature Yesterday

Maximum temperature yesterday: 57 °F (at 12:00 am)
Minimum temperature yesterday: 46 °F (at 9:19 am)
Average temperature yesterday: 51 °F

High & Low Weather Summary for the Past Weeks

 TemperatureHumidityPressure
High66 °F (Apr 27, 4:00 pm)100% (Apr 15, 4:00 am)30.68 "Hg (Apr 15, 4:00 am)
Low19 °F (Apr 19, 7:00 am)12% (Apr 19, 3:00 pm)29.60 "Hg (Apr 17, 12:00 am)
Average43 °F85%30.11 "Hg
* Reported Apr 14 9:00 pm — Apr 29 9:00 pm, Saint John, Weather by CustomWeather, © 2017

Note: Actual official high and low records may vary slightly from our data, if they occured in-between our weather recording intervals... More about our weather records

Advertising

Saint John Weather History for the Previous 24 Hours

Scroll right to see more
 ConditionsComfort  
Time TempWeatherWind HumidityBarometerVisibility
9:00 pm
Sat, Apr 29
43 °FPassing clouds.6 mph100%29.72 "Hg15 mi
8:00 pm50 °FPassing clouds.5 mph88%29.69 "Hg15 mi
7:00 pm54 °FBroken clouds.8 mph77%29.70 "Hg15 mi
6:00 pm50 °FPartly sunny.5 mph88%29.71 "Hg15 mi
5:22 pm52 °FMostly cloudy.8 mph94%29.72 "Hg15 mi
4:00 pm57 °FBroken clouds.9 mph77%29.73 "Hg15 mi
3:00 pm61 °FBroken clouds.13 mph72%29.75 "Hg15 mi
2:26 pm55 °FBroken clouds.7 mph94%29.80 "Hg15 mi
2:00 pm52 °FMostly cloudy.3 mph100%29.82 "Hg9 mi
1:43 pm50 °FFog.No wind100%29.84 "Hg6 mi
1:31 pm50 °FFog.9 mph100%29.86 "Hg2 mi
1:00 pm48 °FFog.9 mph100%29.88 "Hg1 mi
12:47 pm50 °FFog.15 mph100%29.88 "Hg2 mi
12:19 pm50 °FFog.2 mph100%29.85 "Hg5 mi
12:00 pm50 °FFog.5 mph100%29.84 "Hg2 mi
11:17 am48 °FFog.6 mph100%29.87 "Hg1 mi
11:00 am48 °FFog.7 mph100%29.88 "Hg1 mi
10:38 am46 °FFog.3 mph100%29.89 "Hg1 mi
9:00 am45 °FFog.8 mph100%29.91 "Hg0 mi
8:47 am46 °FFog.10 mph100%29.93 "Hg0 mi
8:40 am46 °FFog.10 mph100%29.93 "Hg0 mi
8:00 am46 °FFog.3 mph100%29.93 "Hg0 mi
7:59 am46 °FFog.3 mph100%29.93 "Hg0 mi
7:26 am45 °FFog.5 mph100%29.93 "Hg0 mi
7:15 am45 °FFog.6 mph100%29.94 "Hg0 mi
7:00 am45 °FFog.8 mph100%29.95 "Hg0 mi
6:12 am43 °FFog.5 mph100%29.94 "Hg0 mi
5:44 am43 °FFog.7 mph100%29.94 "Hg0 mi
5:37 am43 °FFog.3 mph100%29.93 "Hg0 mi
4:22 am46 °FFog.5 mph100%29.91 "Hg0 mi
3:00 am45 °FFog.5 mph100%29.92 "Hg1 mi
2:24 am45 °FFog.2 mph100%29.93 "Hg1 mi
2:00 am46 °FFog.2 mph100%29.95 "Hg1 mi
1:00 am46 °FFog.5 mph100%29.96 "Hg1 mi
12:00 am46 °FFog.6 mph100%29.95 "Hg1 mi
11:00 pm
Fri, Apr 28
48 °FFog.6 mph100%29.94 "Hg1 mi
10:32 pm48 °FFog.3 mph100%29.94 "Hg1 mi
10:22 pm48 °FFog.5 mph100%29.94 "Hg1 mi
10:00 pm48 °FFog.3 mph100%29.94 "Hg1 mi
Weather by CustomWeather, © 2017

See weather overviewHow to use our weather pages